DW9565 Weather Reports


Display with metric or nautical units.
time (UTC)temp
F
wind
direction
speed
MPH
gust
MPH
rain 1hr
in
rain 24hr
in
rain mn
in
humidity
%
barometer
mb
20201026124650 29 360 0.0 0.0 0.00 0.00 0.00 39 1017.0
20201026123108 30 292 0.0 0.0 0.00 0.00 0.00 37 1017.3
20201026121654 29 360 0.0 0.0 0.00 0.00 0.00 40 1016.9
20201026120114 27 268 0.0 0.0 0.00 0.00 0.00 42 1016.9
20201026114554 26 360 0.0 0.0 0.00 0.00 0.00 43 1016.9
20201026113122 27 360 0.0 0.0 0.00 0.00 0.00 41 1017.2
20201026111611 26 360 0.0 0.0 0.00 0.00 0.00 43 1017.5
20201026110029 25 360 0.0 0.0 0.00 0.00 0.00 45 1017.3
20201026104523 24 360 0.0 0.0 0.00 0.00 0.00 47 1017.5
20201026103021 24 360 0.0 0.0 0.00 0.00 0.00 47 1017.7
20201026100309 23 360 0.0 0.0 0.00 0.00 0.00 50 1018.6
20201026094653 22 360 0.0 0.0 0.00 0.00 0.00 51 1018.6
20201026093140 21 360 0.0 0.0 0.00 0.00 0.00 52 1018.9
20201026091656 21 269 0.0 0.0 0.00 0.00 0.00 52 1018.6
20201026090151 22 360 0.0 0.0 0.00 0.00 0.00 49 1018.8
20201026084650 22 360 0.0 0.0 0.00 0.00 0.00 49 1018.8
20201026083045 22 279 0.0 0.0 0.00 0.00 0.00 49 1018.7
20201026081619 23 265 0.0 0.0 0.00 0.00 0.00 49 1018.9
20201026080132 23 269 0.0 0.0 0.00 0.00 0.00 49 1019.0
20201026074558 21 360 0.0 0.0 0.00 0.00 0.00 52 1019.2
20201026073048 20 360 0.0 0.0 0.00 0.00 0.00 55 1019.7
20201026071522 20 360 0.0 0.0 0.00 0.00 0.00 57 1020.3
20201026070034 20 263 0.0 0.0 0.00 0.00 0.00 56 1021.0
20201026064722 20 360 0.0 0.0 0.00 0.00 0.00 55 1020.9
20201026063303 22 360 0.0 0.0 0.00 0.00 0.00 52 1020.8
20201026061719 21 360 0.0 0.0 0.00 0.00 0.00 54 1020.9
20201026060119 20 252 0.0 0.0 0.00 0.00 0.00 54 1021.2
20201026054737 20 256 0.0 0.0 0.00 0.00 0.00 55 1021.3
20201026053205 19 360 0.0 0.0 0.00 0.00 0.00 55 1021.5
20201026051707 19 259 0.0 0.0 0.00 0.00 0.00 55 1021.8
20201026050054 18 259 0.0 0.0 0.00 0.00 0.00 56 1021.9
20201026044541 18 260 0.0 0.0 0.00 0.00 0.00 57 1021.9
20201026043127 18 360 0.0 0.0 0.00 0.00 0.00 56 1022.0
20201026041613 17 265 0.0 0.0 0.00 0.00 0.00 59 1022.3
20201026040147 16 360 0.0 0.0 0.00 0.00 0.00 61 1022.7
20201026034539 16 360 0.0 0.0 0.00 0.00 0.00 62 1022.9
20201026033107 16 231 0.0 0.0 0.00 0.00 0.00 62 1023.0
20201026031522 16 360 0.0 0.0 0.00 0.00 0.00 63 1023.2
20201026030057 17 270 0.0 0.0 0.00 0.00 0.00 62 1023.2
20201026024533 15 269 0.0 0.0 0.00 0.00 0.00 63 1023.3
20201026023100 16 360 0.0 0.0 0.00 0.00 0.00 62 1023.6
20201026021524 16 360 0.0 0.0 0.00 0.00 0.00 60 1023.7
20201026020029 15 250 0.0 0.0 0.00 0.00 0.00 59 1023.9
20201026014519 15 254 0.0 0.0 0.00 0.00 0.00 59 1024.1
20201026013020 14 257 0.0 0.0 0.00 0.00 0.00 58 1024.2
20201026011514 14 360 0.0 0.0 0.00 0.00 0.00 56 1024.3
20201026003222 13 264 0.0 0.0 0.00 0.00 0.00 58 1024.8
20201026001656 14 263 0.0 0.0 0.00 0.00 0.00 59 1024.8
20201026000201 13 360 0.0 0.0 0.00 0.00 0.00 62 1025.1
20201025234557 13 360 0.0 0.0 0.00 0.00 0.00 64 1025.5
20201025233131 13 360 0.0 0.0 0.00 0.00 0.00 65 1025.6
20201025231534 13 360 0.0 0.0 0.00 0.00 0.00 67 1025.8
20201025230050 12 360 0.0 0.0 0.00 0.00 0.00 70 1026.2
20201025224524 11 360 0.0 0.0 0.00 0.00 0.00 75 1026.3
20201025223021 12 360 0.0 0.0 0.00 0.00 0.00 75 1026.6
20201025221715 12 360 0.0 0.0 0.00 0.00 0.00 77 1026.9
20201025220314 11 214 0.0 0.0 0.00 0.00 0.00 77 1026.9
20201025214638 10 360 0.0 0.0 0.00 0.00 0.00 76 1027.1
20201025213222 10 360 0.0 0.0 0.00 0.00 0.00 80 1027.7
20201025211702 11 230 0.0 0.0 0.00 0.00 0.00 81 1028.0
20201025210212 10 230 0.0 0.0 0.00 0.00 0.00 80 1028.2
20201025204601 10 217 0.0 0.0 0.00 0.00 0.00 79 1028.3
20201025203109 9 223 0.0 0.0 0.00 0.00 0.00 79 1028.5
20201025201554 9 220 0.0 0.0 0.00 0.00 0.00 80 1028.8
20201025200152 9 223 0.0 0.0 0.00 0.00 0.00 81 1029.0
20201025194546 9 219 0.0 0.0 0.00 0.00 0.00 82 1029.3
20201025193127 9 225 0.0 0.0 0.00 0.00 0.00 84 1029.7
20201025191538 9 360 0.0 0.0 0.00 0.00 0.00 85 1029.9
20201025184657 8 229 0.0 0.0 0.00 0.00 0.00 88 1030.5
20201025183143 7 240 0.0 0.0 0.00 0.00 0.00 88 1031.0
20201025181710 7 239 0.0 0.0 0.00 0.00 0.00 88 1031.4
20201025180321 7 360 0.0 0.0 0.00 0.00 0.00 88 1031.5
20201025174759 7 360 0.0 0.0 0.00 0.00 0.00 88 1031.7
20201025173124 8 360 0.0 0.0 0.00 0.00 0.00 89 1032.1
20201025171739 7 360 0.0 0.0 0.00 0.00 0.00 88 1032.1
20201025170319 7 360 0.0 0.0 0.00 0.00 0.00 88 1032.4
20201025164558 7 360 0.0 0.0 0.00 0.00 0.00 88 1032.7
20201025163120 7 277 0.0 0.0 0.00 0.00 0.00 88 1032.7
20201025161632 6 277 0.0 0.0 0.00 0.00 0.00 88 1033.0
20201025160056 6 277 0.0 0.0 0.00 0.00 0.00 88 1033.1
20201025154607 5 360 0.0 0.0 0.00 0.00 0.00 88 1033.0
20201025153029 5 360 0.0 0.0 0.00 0.00 0.00 88 1033.0
20201025151600 5 277 0.0 0.0 0.00 0.00 0.00 88 1033.1
20201025150115 5 360 0.0 0.0 0.00 0.00 0.00 88 1032.9
20201025144609 5 360 0.0 0.0 0.00 0.00 0.00 88 1032.9
20201025143030 5 360 0.0 0.0 0.00 0.00 0.00 88 1032.9
20201025141550 5 360 0.0 0.0 0.00 0.00 0.00 88 1032.9
20201025140034 5 360 0.0 0.0 0.00 0.00 0.00 88 1032.9
20201025134528 5 360 0.0 0.0 0.00 0.00 0.00 88 1032.6
20201025133019 5 360 0.0 0.0 0.00 0.00 0.00 88 1032.6
20201025131528 5 360 0.0 0.0 0.00 0.00 0.00 88 1032.8